Flag for Jordan Weather past 2 weeks in Amman, Jordan

Now
84 °F

Haze.


Feels Like: 82 °F
Forecast: 72 / 86 °F
Wind: 6 mph from West

Location: Amman Airport

Current Time: May 24, 2015 at 12:42:45 PM

Latest Report: May 24, 2015 at 12:00 PM


Visibility: 3 mi

Pressure: 30.04 "Hg

Humidity: 22%

Dew point: 41 °F

Location of AmmanLocation

Historic Weather in Amman — Graph

°F

Amman temperature yesterday

Maximum temperature yesterday: 79 °F (at 3:00 PM)
Minimum temperature yesterday: 61 °F (at 3:00 AM)
Average temperature yesterday: 70 °F

Past Weeks' High & Low Weather Summary

 TemperatureHumidityPressure
High97 °F (May 19, 3:00 PM)94% (May 11, 6:00 AM)30.24 "Hg (May 11, 6:00 AM)
Low55 °F (May 11, 6:00 AM)8% (May 18, 1:00 PM)29.77 "Hg (May 10, 2:00 AM)
Average72 °F37%29.98 "Hg
* Reported May 9 11:00 AM — May 24 11:00 AM, Amman, Weather by CustomWeather, © 2015

Note: Actual official high and low records may vary slightly from our data, if they occured in-between our weather recording intervals... More about our weather records

Advertising

Amman weather history for previous 24 hours

 ConditionsComfort  
Time TempWeatherWind HumidityBarometerVisibility
11:00 AM
Sun, May 24
82 °FHaze.2 mph23%30.07 "Hg3 mi
9:00 AM77 °FHaze.No wind26%30.04 "Hg3 mi
8:00 AM73 °FHaze.6 mph31%30.04 "Hg3 mi
7:00 AM70 °FHaze.7 mph35%30.04 "Hg3 mi
6:00 AM66 °FHaze.8 mph40%30.01 "Hg3 mi
5:00 AM64 °FHaze.12 mph46%30.01 "Hg3 mi
4:00 AM66 °FClear.9 mph43%30.01 "Hg4 mi
3:00 AM66 °FClear.10 mph40%30.01 "Hg4 mi
2:00 AM66 °FClear.12 mph40%30.01 "Hg4 mi
1:00 AM68 °FHaze.6 mph35%30.01 "Hg3 mi
12:00 AM66 °FHaze.7 mph37%30.01 "Hg3 mi
11:00 PM
Sat, May 23
68 °FHaze.6 mph46%30.01 "Hg3 mi
10:00 PM70 °FHaze.9 mph50%30.01 "Hg3 mi
9:00 PM72 °FHaze.8 mph50%30.01 "Hg3 mi
8:00 PM72 °FHaze.12 mph50%30.01 "Hg3 mi
7:00 PM75 °FHaze.16 mph44%29.98 "Hg3 mi
6:00 PM79 °FHaze.16 mph34%29.98 "Hg3 mi
5:00 PM79 °FClear.16 mph32%29.98 "Hg4 mi
4:00 PM79 °FClear.14 mph34%29.98 "Hg4 mi
3:00 PM79 °FClear.14 mph34%29.98 "Hg4 mi
2:00 PM77 °FHaze.16 mph36%29.98 "Hg3 mi
1:00 PM75 °FHaze.12 mph36%29.98 "Hg3 mi
12:00 PM73 °FHaze.12 mph44%30.01 "Hg3 mi
Weather by CustomWeather, © 2015

See weather overviewHow to use our weather pages